Location: Beacon Field Observatory
(38.7700°N, 77.0829°W)
Time: 00:01:45
(UTC-05:00)

UKube-1 - Pass Details

Date: 08 December 2019
Orbit: 614 x 618 km, 98.5° (Epoch: 20 January)

Event Time Altitude Azimuth Distance (km) Brightness Sun altitude
Rises 17:13:26 0° 20° (NNE) 2,896 ? -5.5°
Reaches altitude 10° 17:15:43 10° 27° (NNE) 1,987 ? -5.9°
Maximum altitude 17:19:51 44° 100° (E) 853 ? -6.7°
Drops below altitude 10° 17:23:58 10° 173° (S) 1,974 ? -7.4°
Sets 17:26:13 0° 179° (S) 2,876 ? -7.8°
